Home   Weather   Comodoro Rivadavia   Past weeks

Flag for Argentina Past Weather in Comodoro Rivadavia, Chubut, Argentina — Yesterday and Last 2 Weeks

Now
45 °F

Passing clouds.


Feels Like: 45 °F
Forecast: 45 / 65 °F
Wind: 2 mph from Northwest

Location: Comodoro Rivadavia Aerodrome

Current Time: Oct 1, 2016 at 7:30:44 AM

Latest Report: Oct 1, 2016 at 7:00 AM


Visibility: N/A

Pressure: 30.01 "Hg

Humidity: 87%

Dew Point: 41 °F

Location of Comodoro RivadaviaLocation

Past Weather in Comodoro Rivadavia — Graph

°F

Comodoro Rivadavia Temperature Yesterday

Maximum temperature yesterday: 55 °F (at 12:00 AM)
Minimum temperature yesterday: 50 °F (at 6:00 AM)
Average temperature yesterday: 53 °F

High & Low Weather Summary for the Past Weeks

 TemperatureHumidityPressure
High72 °F (Sep 20, 3:00 PM)100% (Sep 16, 7:00 AM)30.45 "Hg (Sep 16, 7:00 AM)
Low30 °F (Sep 23, 3:00 AM)18% (Sep 23, 4:00 PM)29.68 "Hg (Sep 20, 4:00 AM)
Average52 °F64%30.07 "Hg
* Reported Sep 16 6:00 AM — Oct 1 6:00 AM, Comodoro Rivadavia, Weather by CustomWeather, © 2016

Note: Actual official high and low records may vary slightly from our data, if they occured in-between our weather recording intervals... More about our weather records

Advertising

Comodoro Rivadavia Weather History for the Previous 24 Hours

Scroll right to see more
 ConditionsComfort  
Time TempWeatherWind HumidityBarometerVisibility
6:00 AM
Sat, Oct 1
45 °FClear.3 mph87%30.01 "Hg10 mi
5:00 AM48 °FClear.3 mph87%30.01 "Hg10 mi
4:00 AM48 °FClear.5 mph87%30.01 "Hg10 mi
3:00 AM48 °FClear.5 mph94%29.98 "Hg10 mi
2:00 AM50 °FClear.No wind94%29.98 "Hg10 mi
1:00 AM50 °FClear.1 mph94%29.98 "Hg10 mi
12:00 AM52 °FPassing clouds.No wind94%29.98 "HgN/A
11:00 PM
Fri, Sep 30
52 °FPassing clouds.No wind94%29.98 "HgN/A
10:00 PM52 °FPassing clouds.No wind94%29.98 "HgN/A
9:00 PM52 °FPassing clouds.1 mph94%29.98 "HgN/A
8:00 PM52 °FPassing clouds.2 mph94%29.98 "HgN/A
7:00 PM55 °FScattered clouds.1 mph88%29.95 "HgN/A
6:18 PM55 °FLight rain. Scattered clouds.No wind82%29.95 "HgN/A
6:00 PM55 °FScattered clouds.No wind82%29.92 "HgN/A
5:00 PM55 °FScattered clouds.No wind88%29.92 "HgN/A
4:00 PM54 °FPassing clouds.No wind94%29.92 "HgN/A
3:00 PM52 °FRain. Scattered clouds.1 mph94%29.95 "Hg3 mi
2:00 PM55 °FScattered clouds.3 mph77%29.92 "HgN/A
1:00 PM54 °FScattered clouds.5 mph82%29.92 "HgN/A
12:00 PM52 °FScattered clouds.10 mph82%29.95 "HgN/A
11:00 AM54 °FScattered clouds.2 mph82%29.95 "HgN/A
10:00 AM50 °FLight rain. More clouds than sun.7 mph94%29.95 "HgN/A
9:00 AM50 °FDrizzle. More clouds than sun.9 mph88%29.98 "Hg4 mi
8:00 AM50 °FLight rain. Partly sunny.6 mph88%29.98 "HgN/A
7:00 AM50 °FLight rain. Passing clouds.7 mph88%29.98 "HgN/A
Weather by CustomWeather, © 2016

See weather overviewHow to use our weather pages